SCOUT X-4 DEB

基本信息
目录编号:
40592
目录名称:
SCOUT X-4 DEB
国际标识:
1964-051F
轨道中心:
EARTH
物体状态:
已陨落(2024-12-24)
发射日期:
1964-08-25 UTC
轨道信息
数据来源: 国际轨道数据
星历时间: 2024-12-18T06:26:00+0800
半长轴: 6739.306km
偏心率: 0.0012279
轨道倾角: 79.826°
近地点辐角: 48.967°
升交点赤经: 199.905°
平近点角: 311.265°
近地点: 352.895km
远地点: 369.447km
周期: 91.766分钟
每日圈数: 15.692063
详细信息
发射场:
AFWTR
轨道高度:
LEO
数据来源:
AOE Integration Group
参考系:
TEME
时间系统:
UTC
历元类型:
SGP4
2D轨道图
3D轨道图
轨道高度分析图
轨道倾角分析图
轨道综合分析图
查看轨道综合分析图